Location: Seattle
(47.6064°N, 122.3308°W)
Time: 04:30:42
(UTC-08:00)

N. Korean satellite - Pass Details

Date: 08 December 2022
Orbit: 407 x 441 km, 97.3° (Epoch: 05 February)

Event Time Altitude Azimuth Distance (km) Brightness Sun altitude
Rises 17:20:16 0° 197° (SSW) 2,467 10.8 -10.1°
Reaches altitude 10° 17:22:36 10° 212° (SSW) 1,607 10.1 -10.4°
Maximum altitude 17:25:23 22° 266° (W) 1,055 9.3 -10.9°
Drops below altitude 10° 17:28:12 10° 320° (NW) 1,634 9.5 -11.3°
Sets 17:30:36 0° 335° (NNW) 2,521 10.3 -11.7°
